This is the latest recevied weather packets stored in our database for station/object JO1YDG-13. If no packets are shown the sender has not sent any weather packets the latest 10 day(s).
| Time | Temp. | Humidity | Pressure | Rain* | Wind** | Luminosity | Snow |
|---|---|---|---|---|---|---|---|
| 1777187077 | 22.22° C | 41% | 985.8 hPa | 0 mm | - | - | - |
| 1777186777 | 22.22° C | 41% | 985.7 hPa | 0 mm | - | - | - |
| 1777186476 | 22.22° C | 41% | 985.7 hPa | 0 mm | - | - | - |
| 1777186176 | 22.22° C | 41% | 985.7 hPa | 0 mm | - | - | - |
| 1777185878 | 22.22° C | 41% | 985.7 hPa | 0 mm | - | - | - |
| 1777185578 | 22.22° C | 40% | 985.7 hPa | 0 mm | - | - | - |
| 1777185278 | 22.22° C | 40% | 986 hPa | 0 mm | - | - | - |
| 1777184977 | 22.78° C | 40% | 986 hPa | 0 mm | - | - | - |
| 1777184677 | 22.78° C | 40% | 986.1 hPa | 0 mm | - | - | - |
| 1777184377 | 22.22° C | 40% | 986.1 hPa | 0 mm | - | - | - |
| 1777184076 | 22.22° C | 40% | 986.3 hPa | 0 mm | - | - | - |
| 1777183776 | 22.22° C | 40% | 986.3 hPa | 0 mm | - | - | - |
| 1777183478 | 22.22° C | 39% | 986.3 hPa | 0 mm | - | - | - |
| 1777183178 | 22.78° C | 39% | 986.3 hPa | 0 mm | - | - | - |
| 1777182877 | 22.78° C | 38% | 986.3 hPa | 0 mm | - | - | - |
| 1777182577 | 22.78° C | 38% | 986.3 hPa | 0 mm | - | - | - |
| 1777182277 | 23.33° C | 37% | 986.3 hPa | 0 mm | - | - | - |
| 1777181977 | 23.33° C | 37% | 986.3 hPa | 0 mm | - | - | - |
| 1777181677 | 23.33° C | 37% | 986.3 hPa | 0 mm | - | - | - |
| 1777181377 | 23.89° C | 36% | 986.3 hPa | 0 mm | - | - | - |
| 1777181077 | 23.33° C | 36% | 986.6 hPa | 0 mm | - | - | - |
| 1777180777 | 23.89° C | 36% | 986.6 hPa | 0 mm | - | - | - |
| 1777180476 | 23.89° C | 36% | 986.7 hPa | 0 mm | - | - | - |
| 1777180176 | 24.44° C | 35% | 986.7 hPa | 0 mm | - | - | - |
| 1777179878 | 23.89° C | 34% | 986.7 hPa | 0 mm | - | - | - |
* Rain latest hour (hover to see other rain measurements)
** Current wind speed in m/s (hover to see current wind gust speed)